WZZ2QC LIMJ-EPKK

Flight info

Callsign WZZ2QC
Flight time 1h 37m
Altitude 36000
Route GEN DCT OSKOR DCT NESTI DCT MALUG/N0456F370 DCT LEDVA DCT NETIR
Aircraft A321/M-SDE3FGHIRWY/LB1

Departure

Time 2026-04-21 20:24
Airport Genoa Cristoforo Colombo Airport (LIMJ)

Arrival

Time 2026-04-21 22:01
Airport Kraków John Paul II International Airport (EPKK)
Time Latitude Longitude Altitude Speed Heading
2026-04-21 19:53 44.41406 8.85013 18 ft 0 kts 60°
2026-04-21 20:16 44.41404 8.85008 -9 ft 3 kts 60°
2026-04-21 20:16 44.41391 8.84976 21 ft 4 kts 63°
2026-04-21 20:16 44.41379 8.84942 20 ft 4 kts 67°
2026-04-21 20:17 44.41370 8.84906 19 ft 4 kts 77°
2026-04-21 20:17 44.41368 8.84871 18 ft 3 kts 103°
2026-04-21 20:17 44.41368 8.84867 18 ft 0 kts 105°
2026-04-21 20:21 44.41364 8.84888 19 ft 5 kts 105°
2026-04-21 20:21 44.41352 8.84957 18 ft 9 kts 104°
2026-04-21 20:21 44.41337 8.85040 18 ft 9 kts 103°
2026-04-21 20:22 44.41319 8.85135 18 ft 11 kts 105°
2026-04-21 20:22 44.41267 8.85271 18 ft 6 kts 154°
2026-04-21 20:22 44.41234 8.85278 18 ft 5 kts 179°
2026-04-21 20:23 44.41179 8.85266 18 ft 13 kts 193°
2026-04-21 20:23 44.41062 8.85209 15 ft 17 kts 221°
2026-04-21 20:23 44.41026 8.85067 14 ft 18 kts 271°
2026-04-21 20:23 44.41105 8.84642 20 ft 81 kts 285°
2026-04-21 20:24 44.41317 8.83564 24 ft 145 kts 285°
2026-04-21 20:24 44.41607 8.82035 372 ft 168 kts 285°
2026-04-21 20:24 44.41873 8.80458 1161 ft 166 kts 274°
2026-04-21 20:24 44.41631 8.78866 1686 ft 177 kts 241°
2026-04-21 20:25 44.40692 8.77654 1999 ft 194 kts 204°
2026-04-21 20:25 44.39365 8.77464 2502 ft 199 kts 167°
2026-04-21 20:25 44.38080 8.78264 3067 ft 201 kts 152°
2026-04-21 20:25 44.36835 8.79170 3623 ft 202 kts 152°
2026-04-21 20:26 44.35597 8.80071 4135 ft 205 kts 152°
2026-04-21 20:26 44.34328 8.80992 4393 ft 205 kts 153°
2026-04-21 20:26 44.32970 8.81592 4654 ft 206 kts 174°
2026-04-21 20:26 44.31531 8.81558 4907 ft 207 kts 183°
2026-04-21 20:27 44.30086 8.81462 4994 ft 208 kts 183°
2026-04-21 20:27 44.28616 8.81366 5070 ft 212 kts 183°
2026-04-21 20:27 44.27145 8.81270 5694 ft 210 kts 184°
2026-04-21 20:27 44.25702 8.81174 6376 ft 210 kts 184°
2026-04-21 20:28 44.24237 8.81075 6961 ft 212 kts 185°
2026-04-21 20:28 44.22758 8.80976 7530 ft 214 kts 185°
2026-04-21 20:28 44.21262 8.80877 8098 ft 217 kts 185°
2026-04-21 20:28 44.19743 8.80775 8665 ft 220 kts 186°
2026-04-21 20:29 44.18207 8.80673 9227 ft 222 kts 186°
2026-04-21 20:29 44.16652 8.80572 9792 ft 225 kts 186°
2026-04-21 20:29 44.15127 8.80180 10270 ft 222 kts 211°
2026-04-21 20:29 44.14001 8.78805 10761 ft 214 kts 243°
2026-04-21 20:30 44.13582 8.76875 11267 ft 208 kts 271°
2026-04-21 20:30 44.13635 8.74818 11631 ft 216 kts 275°
2026-04-21 20:30 44.13714 8.72686 11905 ft 229 kts 275°
2026-04-21 20:30 44.13852 8.70373 12047 ft 249 kts 285°
2026-04-21 20:31 44.14644 8.68241 12675 ft 253 kts 312°
2026-04-21 20:31 44.16117 8.66892 13418 ft 260 kts 339°
2026-04-21 20:31 44.17954 8.66621 13857 ft 276 kts 359°
2026-04-21 20:31 44.19963 8.66966 13953 ft 305 kts
2026-04-21 20:32 44.22154 8.67418 13972 ft 332 kts
2026-04-21 20:32 44.24527 8.67901 14071 ft 354 kts
2026-04-21 20:32 44.26996 8.68400 14556 ft 362 kts
2026-04-21 20:32 44.29499 8.68920 15228 ft 365 kts
2026-04-21 20:33 44.31198 8.69293 15714 ft 367 kts
2026-04-21 20:33 44.33732 8.69874 16405 ft 370 kts
2026-04-21 20:33 44.36263 8.70651 17056 ft 380 kts 13°
2026-04-21 20:33 44.38625 8.72466 17706 ft 399 kts 31°
2026-04-21 20:34 44.40762 8.74987 18316 ft 405 kts 33°
2026-04-21 20:34 44.42902 8.77596 18853 ft 409 kts 34°
2026-04-21 20:34 44.45048 8.80244 19429 ft 413 kts 34°
2026-04-21 20:34 44.47205 8.82912 20014 ft 415 kts 34°
2026-04-21 20:35 44.49381 8.85605 20590 ft 419 kts 34°
2026-04-21 20:35 44.51575 8.88316 21148 ft 422 kts 34°
2026-04-21 20:35 44.53788 8.91039 21676 ft 424 kts 33°
2026-04-21 20:35 44.56038 8.93734 22193 ft 427 kts 32°
2026-04-21 20:36 44.58330 8.96409 22696 ft 429 kts 32°
2026-04-21 20:36 44.60641 8.99070 23228 ft 431 kts 32°
2026-04-21 20:36 44.62972 9.01746 23679 ft 434 kts 32°
2026-04-21 20:36 44.65317 9.04452 24093 ft 438 kts 31°
2026-04-21 20:37 44.67670 9.07188 24535 ft 440 kts 32°
2026-04-21 20:37 44.70025 9.09946 24993 ft 442 kts 32°
2026-04-21 20:37 44.72393 9.12732 25470 ft 445 kts 32°
2026-04-21 20:37 44.74775 9.15531 25865 ft 446 kts 30°
2026-04-21 20:38 44.77283 9.18057 26252 ft 442 kts 24°
2026-04-21 20:38 44.79880 9.20379 26673 ft 443 kts 24°
2026-04-21 20:38 44.82499 9.22701 27127 ft 446 kts 24°
2026-04-21 20:38 44.85126 9.25043 27536 ft 447 kts 24°
2026-04-21 20:39 44.87775 9.27333 27927 ft 444 kts 18°
2026-04-21 20:39 44.90576 9.29081 28318 ft 440 kts 14°
2026-04-21 20:39 44.93418 9.30722 28726 ft 442 kts 14°
2026-04-21 20:39 44.96270 9.32365 29122 ft 445 kts 14°
2026-04-21 20:40 44.99136 9.34018 29612 ft 444 kts 14°
2026-04-21 20:40 45.01992 9.35681 29962 ft 444 kts 14°
2026-04-21 20:40 45.07446 9.39749 29993 ft 463 kts 32°
2026-04-21 20:41 45.12137 9.46142 30377 ft 469 kts 36°
2026-04-21 20:41 45.14451 9.49393 30852 ft 468 kts 36°
2026-04-21 20:41 45.16757 9.52650 31305 ft 467 kts 36°
2026-04-21 20:42 45.19051 9.55894 31778 ft 466 kts 36°
2026-04-21 20:42 45.21346 9.59135 32198 ft 465 kts 36°
2026-04-21 20:42 45.23643 9.62370 32625 ft 465 kts 36°
2026-04-21 20:42 45.25935 9.65590 33040 ft 464 kts 36°
2026-04-21 20:43 45.28230 9.68812 33471 ft 463 kts 36°
2026-04-21 20:43 45.30521 9.72033 33883 ft 463 kts 36°
2026-04-21 20:43 45.32809 9.75257 34232 ft 463 kts 36°
2026-04-21 20:43 45.35096 9.78482 34547 ft 463 kts 36°
2026-04-21 20:44 45.37379 9.81709 34886 ft 463 kts 36°
2026-04-21 20:44 45.39663 9.84945 35196 ft 463 kts 37°
2026-04-21 20:44 45.41944 9.88183 35500 ft 463 kts 37°
2026-04-21 20:44 45.44225 9.91422 35804 ft 463 kts 37°
2026-04-21 20:45 45.46515 9.94674 35978 ft 465 kts 37°
2026-04-21 20:45 45.48804 9.97930 36007 ft 464 kts 37°
2026-04-21 20:45 45.53369 10.04433 36036 ft 464 kts 37°
2026-04-21 20:46 45.57927 10.10945 36011 ft 464 kts 37°
2026-04-21 20:46 45.62477 10.17475 36011 ft 464 kts 37°
2026-04-21 20:47 45.67060 10.23951 36029 ft 463 kts 36°
2026-04-21 20:47 45.71669 10.30387 36070 ft 463 kts 36°
2026-04-21 20:48 45.76271 10.36855 36066 ft 464 kts 37°
2026-04-21 20:48 45.80704 10.43612 36054 ft 473 kts 46°
2026-04-21 20:49 45.84239 10.51651 36052 ft 478 kts 51°
2026-04-21 20:49 45.87742 10.59789 36089 ft 479 kts 51°
2026-04-21 20:50 45.91237 10.67901 36041 ft 476 kts 51°
2026-04-21 20:50 45.94737 10.76059 36056 ft 477 kts 51°
2026-04-21 20:51 45.98206 10.84206 36057 ft 478 kts 51°
2026-04-21 20:51 46.01675 10.92372 36058 ft 479 kts 51°
2026-04-21 20:52 46.05163 11.00621 36104 ft 479 kts 52°
2026-04-21 20:52 46.08691 11.08979 36095 ft 479 kts 52°
2026-04-21 20:53 46.12107 11.17067 36095 ft 479 kts 52°
2026-04-21 20:53 46.15510 11.25154 36084 ft 479 kts 52°
2026-04-21 20:54 46.19005 11.33494 36075 ft 478 kts 52°
2026-04-21 20:54 46.22435 11.41706 36086 ft 478 kts 52°
2026-04-21 20:55 46.25887 11.50006 36098 ft 478 kts 53°
2026-04-21 20:55 46.29297 11.58230 36081 ft 478 kts 52°
2026-04-21 20:56 46.32694 11.66439 36086 ft 477 kts 52°
2026-04-21 20:56 46.36127 11.74748 36096 ft 478 kts 53°
2026-04-21 20:57 46.39511 11.82960 36118 ft 478 kts 53°
2026-04-21 20:57 46.42901 11.91233 36112 ft 477 kts 53°
2026-04-21 20:58 46.46294 11.99525 36116 ft 478 kts 53°
2026-04-21 20:58 46.49683 12.07828 36107 ft 478 kts 53°
2026-04-21 20:59 46.53061 12.16126 36114 ft 478 kts 53°
2026-04-21 20:59 46.56437 12.24470 36119 ft 476 kts 54°
2026-04-21 21:00 46.59791 12.32781 36115 ft 476 kts 54°
2026-04-21 21:00 46.63144 12.41087 36106 ft 476 kts 54°
2026-04-21 21:01 46.66479 12.49400 36114 ft 477 kts 54°
2026-04-21 21:01 46.69815 12.57758 36131 ft 477 kts 54°
2026-04-21 21:02 46.73628 12.65544 36139 ft 471 kts 47°
2026-04-21 21:02 46.77592 12.73158 36152 ft 471 kts 47°
2026-04-21 21:03 46.81538 12.80792 36304 ft 471 kts 47°
2026-04-21 21:03 46.83529 12.84663 36486 ft 471 kts 47°
2026-04-21 21:03 46.85495 12.88487 36655 ft 471 kts 47°
2026-04-21 21:04 46.87464 12.92319 36858 ft 470 kts 48°
2026-04-21 21:04 46.89422 12.96140 37038 ft 470 kts 48°
2026-04-21 21:04 46.91380 12.99964 37142 ft 470 kts 48°
2026-04-21 21:04 46.92677 13.02498 37154 ft 470 kts 48°
2026-04-21 21:05 46.96591 13.10158 37161 ft 469 kts 48°
2026-04-21 21:05 47.00500 13.17807 37160 ft 469 kts 48°
2026-04-21 21:06 47.04408 13.25468 37177 ft 469 kts 49°
2026-04-21 21:06 47.08303 13.33148 37166 ft 469 kts 49°
2026-04-21 21:07 47.12186 13.40840 37180 ft 469 kts 49°
2026-04-21 21:07 47.16072 13.48537 37184 ft 469 kts 49°
2026-04-21 21:08 47.19964 13.56252 37189 ft 470 kts 49°
2026-04-21 21:08 47.23866 13.64051 37197 ft 470 kts 50°
2026-04-21 21:09 47.27741 13.71802 37205 ft 470 kts 50°
2026-04-21 21:09 47.31617 13.79557 37209 ft 470 kts 50°
2026-04-21 21:10 47.35491 13.87331 37211 ft 470 kts 50°
2026-04-21 21:10 47.39352 13.95124 37233 ft 470 kts 50°
2026-04-21 21:11 47.43210 14.02913 37225 ft 469 kts 50°
2026-04-21 21:11 47.47057 14.10707 37230 ft 469 kts 50°
2026-04-21 21:12 47.50896 14.18517 37229 ft 469 kts 50°
2026-04-21 21:12 47.54728 14.26335 37248 ft 469 kts 51°
2026-04-21 21:13 47.58581 14.34212 37241 ft 468 kts 51°
2026-04-21 21:13 47.62322 14.41896 37224 ft 468 kts 51°
2026-04-21 21:14 47.66252 14.49986 37213 ft 468 kts 51°
2026-04-21 21:14 47.70067 14.57836 37210 ft 468 kts 51°
2026-04-21 21:15 47.73864 14.65681 37231 ft 468 kts 51°
2026-04-21 21:15 47.77649 14.73539 37231 ft 467 kts 51°
2026-04-21 21:16 47.81435 14.81414 37248 ft 467 kts 51°
2026-04-21 21:16 47.85233 14.89338 37244 ft 467 kts 51°
2026-04-21 21:17 47.89046 14.97327 37249 ft 467 kts 52°
2026-04-21 21:17 47.92807 15.05224 37241 ft 467 kts 52°
2026-04-21 21:18 47.96603 15.13195 37247 ft 468 kts 52°
2026-04-21 21:18 48.00365 15.21124 37251 ft 468 kts 52°
2026-04-21 21:19 48.04124 15.29076 37242 ft 468 kts 52°
2026-04-21 21:19 48.07873 15.37030 37258 ft 468 kts 52°
2026-04-21 21:20 48.11609 15.44999 37256 ft 467 kts 52°
2026-04-21 21:20 48.15358 15.53021 37257 ft 467 kts 52°
2026-04-21 21:21 48.19063 15.60959 37259 ft 467 kts 52°
2026-04-21 21:21 48.22788 15.68946 37268 ft 467 kts 52°
2026-04-21 21:22 48.26527 15.76991 37257 ft 467 kts 52°
2026-04-21 21:22 48.30232 15.84995 37248 ft 466 kts 52°
2026-04-21 21:23 48.33942 15.93045 37239 ft 465 kts 53°
2026-04-21 21:23 48.37620 16.01056 37237 ft 465 kts 53°
2026-04-21 21:24 48.41297 16.09076 37241 ft 465 kts 53°
2026-04-21 21:24 48.44342 16.15729 37247 ft 464 kts 53°
2026-04-21 21:25 48.48030 16.23808 37234 ft 464 kts 53°
2026-04-21 21:25 48.51683 16.31844 37227 ft 464 kts 53°
2026-04-21 21:26 48.55327 16.39888 37220 ft 464 kts 53°
2026-04-21 21:26 48.58995 16.47991 37231 ft 464 kts 53°
2026-04-21 21:27 48.62639 16.56064 37227 ft 463 kts 53°
2026-04-21 21:27 48.66262 16.64120 37221 ft 463 kts 53°
2026-04-21 21:28 48.69874 16.72184 37221 ft 462 kts 53°
2026-04-21 21:29 48.75386 16.84153 37230 ft 461 kts 50°
2026-04-21 21:29 48.79396 16.91743 37209 ft 460 kts 49°
2026-04-21 21:30 48.83451 16.99255 37211 ft 460 kts 49°
2026-04-21 21:30 48.87428 17.06858 37208 ft 460 kts 50°
2026-04-21 21:31 48.91357 17.14542 37228 ft 460 kts 50°
2026-04-21 21:31 48.95254 17.22185 37219 ft 459 kts 50°
2026-04-21 21:32 48.99171 17.29839 37223 ft 458 kts 50°
2026-04-21 21:32 49.03127 17.37544 37222 ft 458 kts 50°
2026-04-21 21:33 49.07037 17.45208 37214 ft 457 kts 50°
2026-04-21 21:33 49.10898 17.52832 37222 ft 457 kts 51°
2026-04-21 21:34 49.14802 17.60561 37219 ft 456 kts 51°
2026-04-21 21:34 49.18674 17.68230 37214 ft 456 kts 51°
2026-04-21 21:35 49.22543 17.75906 37217 ft 456 kts 51°
2026-04-21 21:35 49.26407 17.83597 37227 ft 455 kts 51°
2026-04-21 21:36 49.30258 17.91290 37223 ft 454 kts 51°
2026-04-21 21:36 49.34097 17.98977 37224 ft 454 kts 51°
2026-04-21 21:37 49.37928 18.06663 37225 ft 453 kts 51°
2026-04-21 21:37 49.41750 18.14363 37233 ft 453 kts 51°
2026-04-21 21:38 49.45534 18.22012 37230 ft 452 kts 51°
2026-04-21 21:38 49.49367 18.29777 37222 ft 452 kts 51°
2026-04-21 21:39 49.53162 18.37488 37116 ft 451 kts 51°
2026-04-21 21:39 49.55048 18.41334 36542 ft 450 kts 51°
2026-04-21 21:39 49.56931 18.45177 35978 ft 449 kts 52°
2026-04-21 21:39 49.58812 18.49015 35424 ft 448 kts 52°
2026-04-21 21:40 49.60682 18.52834 34885 ft 446 kts 52°
2026-04-21 21:40 49.62545 18.56651 34336 ft 444 kts 52°
2026-04-21 21:40 49.64397 18.60460 33707 ft 443 kts 52°
2026-04-21 21:40 49.66276 18.64215 33026 ft 441 kts 48°
2026-04-21 21:41 49.68517 18.67587 32339 ft 438 kts 39°
2026-04-21 21:41 49.70992 18.70235 31642 ft 437 kts 30°
2026-04-21 21:41 49.73702 18.72223 30946 ft 437 kts 21°
2026-04-21 21:41 49.76626 18.73549 30217 ft 438 kts 15°
2026-04-21 21:42 49.79586 18.74638 29490 ft 435 kts 15°
2026-04-21 21:42 49.82509 18.75724 28884 ft 429 kts 15°
2026-04-21 21:42 49.85319 18.77145 28243 ft 422 kts 27°
2026-04-21 21:42 49.87724 18.79647 27619 ft 415 kts 43°
2026-04-21 21:43 49.89583 18.83116 26958 ft 411 kts 58°
2026-04-21 21:43 49.90695 18.87144 26567 ft 403 kts 74°
2026-04-21 21:43 49.91058 18.91387 26421 ft 391 kts 88°
2026-04-21 21:43 49.90881 18.95532 26299 ft 379 kts 92°
2026-04-21 21:44 49.90660 18.99538 26168 ft 367 kts 92°
2026-04-21 21:44 49.90439 19.03434 26039 ft 357 kts 92°
2026-04-21 21:44 49.90222 19.07214 25813 ft 349 kts 92°
2026-04-21 21:44 49.90005 19.10936 25458 ft 345 kts 92°
2026-04-21 21:45 49.89787 19.14626 25076 ft 342 kts 92°
2026-04-21 21:45 49.89571 19.18281 24682 ft 339 kts 92°
2026-04-21 21:45 49.89359 19.21913 24289 ft 337 kts 92°
2026-04-21 21:45 49.89200 19.25514 23899 ft 333 kts 86°
2026-04-21 21:46 49.89469 19.29037 23459 ft 327 kts 74°
2026-04-21 21:46 49.90210 19.32336 22998 ft 323 kts 64°
2026-04-21 21:46 49.91117 19.35512 22532 ft 321 kts 65°
2026-04-21 21:46 49.92006 19.38671 22080 ft 319 kts 65°
2026-04-21 21:47 49.92885 19.41821 21627 ft 317 kts 65°
2026-04-21 21:47 49.93756 19.44946 21185 ft 315 kts 65°
2026-04-21 21:47 49.94616 19.48071 20716 ft 315 kts 68°
2026-04-21 21:47 49.95177 19.51358 20280 ft 315 kts 76°
2026-04-21 21:48 49.95620 19.54684 19846 ft 313 kts 76°
2026-04-21 21:48 49.96060 19.57982 19439 ft 311 kts 76°
2026-04-21 21:48 49.96501 19.61266 19041 ft 309 kts 76°
2026-04-21 21:48 49.96940 19.64512 18466 ft 306 kts 76°
2026-04-21 21:49 49.97378 19.67735 17780 ft 304 kts 76°
2026-04-21 21:49 49.97811 19.70926 17127 ft 300 kts 76°
2026-04-21 21:49 49.98240 19.74083 16497 ft 297 kts 76°
2026-04-21 21:49 49.98664 19.77215 15896 ft 294 kts 76°
2026-04-21 21:50 49.99082 19.80306 15306 ft 291 kts 76°
2026-04-21 21:50 49.99497 19.83375 14726 ft 288 kts 76°
2026-04-21 21:50 49.99907 19.86406 14168 ft 285 kts 76°
2026-04-21 21:50 50.00313 19.89410 13549 ft 283 kts 76°
2026-04-21 21:51 50.00716 19.92387 12981 ft 279 kts 76°
2026-04-21 21:51 50.01114 19.95318 12443 ft 275 kts 76°
2026-04-21 21:51 50.01506 19.98206 11949 ft 270 kts 76°
2026-04-21 21:51 50.01889 20.01041 11533 ft 264 kts 76°
2026-04-21 21:52 50.02255 20.03765 11156 ft 257 kts 76°
2026-04-21 21:52 50.02622 20.06494 10768 ft 252 kts 76°
2026-04-21 21:52 50.02978 20.09133 10392 ft 247 kts 76°
2026-04-21 21:52 50.03327 20.11715 10010 ft 243 kts 76°
2026-04-21 21:53 50.03672 20.14274 9546 ft 241 kts 76°
2026-04-21 21:53 50.04018 20.16809 9087 ft 239 kts 76°
2026-04-21 21:53 50.04360 20.19327 8614 ft 237 kts 76°
2026-04-21 21:53 50.04751 20.21806 8136 ft 233 kts 64°
2026-04-21 21:54 50.05716 20.23717 7758 ft 228 kts 32°
2026-04-21 21:54 50.07196 20.24491 7421 ft 227 kts
2026-04-21 21:54 50.08764 20.24146 7066 ft 229 kts 348°
2026-04-21 21:54 50.10308 20.23536 6738 ft 229 kts 343°
2026-04-21 21:55 50.11698 20.22350 6416 ft 231 kts 321°
2026-04-21 21:55 50.12427 20.21077 6132 ft 235 kts 304°
2026-04-21 21:55 50.13015 20.18747 5855 ft 231 kts 282°
2026-04-21 21:55 50.12958 20.16270 5565 ft 229 kts 260°
2026-04-21 21:56 50.12628 20.13871 5264 ft 224 kts 260°
2026-04-21 21:56 50.12307 20.11514 4961 ft 221 kts 260°
2026-04-21 21:56 50.11992 20.09196 4658 ft 217 kts 261°
2026-04-21 21:56 50.11682 20.06918 4357 ft 213 kts 260°
2026-04-21 21:57 50.11377 20.04676 4053 ft 210 kts 261°
2026-04-21 21:57 50.11074 20.02460 3768 ft 209 kts 261°
2026-04-21 21:57 50.10773 20.00256 3488 ft 207 kts 261°
2026-04-21 21:57 50.10477 19.98099 3225 ft 199 kts 261°
2026-04-21 21:58 50.10195 19.96046 2935 ft 189 kts 262°
2026-04-21 21:58 50.09925 19.94081 2680 ft 181 kts 262°
2026-04-21 21:58 50.09673 19.92254 2445 ft 165 kts 262°
2026-04-21 21:58 50.09445 19.90597 2216 ft 149 kts 262°
2026-04-21 21:59 50.09234 19.89064 2011 ft 142 kts 261°
2026-04-21 21:59 50.09031 19.87586 1801 ft 137 kts 261°
2026-04-21 21:59 50.08844 19.86142 1600 ft 137 kts 261°
2026-04-21 21:59 50.08639 19.84696 1421 ft 136 kts 259°
2026-04-21 22:00 50.08445 19.83272 1247 ft 132 kts 259°
2026-04-21 22:00 50.08242 19.81869 1089 ft 132 kts 260°
2026-04-21 22:00 50.08052 19.80480 917 ft 131 kts 260°
2026-04-21 22:00 50.07869 19.79111 792 ft 118 kts 254°
2026-04-21 22:01 50.07720 19.78085 788 ft 79 kts 258°
2026-04-21 22:01 50.07626 19.77419 790 ft 52 kts 258°
2026-04-21 22:01 50.07562 19.76958 795 ft 28 kts 258°
2026-04-21 22:01 50.07493 19.76849 796 ft 13 kts 183°
2026-04-21 22:02 50.07407 19.76875 791 ft 14 kts 167°
2026-04-21 22:02 50.07322 19.76917 790 ft 11 kts 137°
2026-04-21 22:02 50.07318 19.77035 790 ft 13 kts 78°
2026-04-21 22:02 50.07343 19.77218 790 ft 22 kts 77°
2026-04-21 22:03 50.07381 19.77485 789 ft 27 kts 78°
2026-04-21 22:03 50.07424 19.77785 789 ft 29 kts 76°
2026-04-21 22:03 50.07464 19.78084 789 ft 28 kts 78°
2026-04-21 22:03 50.07506 19.78385 790 ft 25 kts 78°
2026-04-21 22:04 50.07545 19.78664 790 ft 27 kts 78°
2026-04-21 22:04 50.07585 19.78953 790 ft 27 kts 78°
2026-04-21 22:04 50.07626 19.79245 789 ft 26 kts 78°
2026-04-21 22:04 50.07663 19.79515 789 ft 22 kts 77°
2026-04-21 22:05 50.07695 19.79739 789 ft 22 kts 78°
2026-04-21 22:05 50.07726 19.79973 789 ft 22 kts 78°
2026-04-21 22:05 50.07756 19.80176 789 ft 15 kts 77°
2026-04-21 22:05 50.07773 19.80329 790 ft 11 kts 100°
2026-04-21 22:06 50.07706 19.80384 790 ft 12 kts 167°
2026-04-21 22:06 50.07614 19.80415 790 ft 14 kts 167°
2026-04-21 22:06 50.07534 19.80409 790 ft 12 kts 195°
2026-04-21 22:06 50.07475 19.80395 790 ft 5 kts 158°
2026-04-21 22:07 50.07462 19.80436 790 ft 3 kts 109°
2026-04-21 22:07 50.07457 19.80457 790 ft 2 kts 108°
2026-04-21 22:07 50.07454 19.80476 790 ft 0 kts 107°